Weather History for KLVN - September, 2012

Change the Weather History Date:

Monday, September 3, 2012

  Actual Average Record
Temperature  
Mean Temperature 72 °F -  
Max Temperature 82 °F 76 °F 91 °F (1948)
Min Temperature 62 °F 55 °F 33 °F (1974)
Cooling Degree Days 7    
Growing Degree Days 22 (Base 50)    
Moisture  
Dew Point 66 °F    
Average Humidity 79    
Maximum Humidity 100    
Minimum Humidity 54    
Precipitation  
Precipitation 0.02 in - - ()
Sea Level Pressure  
Sea Level Pressure 29.89 in    
Wind  
Wind Speed 1 mph (SSW)    
Max Wind Speed 5 mph    
Max Gust Speed -    
Visibility 9 miles    
Events Rain , Thunderstorm    
Averages and records for this station are not official NWS values.
T = Trace of Precipitation, MM = Missing Value Source: NWS Daily Summary

Daily Weather History Graph

Daily Weather History Graph

Search for Another Location

Airport or City:

Trip Planner

Search our weather history database for the weather conditions in past years. The results will help you decide how hot, cold, wet, or windy it might be!

Date:

Astronomy

Sep. 03, 2012 Rise Set
Actual Time 6:38 AM CDT 7:44 PM CDT
Civil Twilight 6:08 AM CDT 8:14 PM CDT
Nautical Twilight 5:32 AM CDT 8:50 PM CDT
Astronomical Twilight 4:54 AM CDT 9:28 PM CDT
Moon 8:52 PM CDT (9/3) 9:57 AM CDT (9/3)
Length of Visible Light 14h 06m
Length of Day
13h 06m
Waning Gibbous, 90% of the Moon is Illuminated
Sep 3
Waning Gibbous
Sep 8
Last Quarter
Sep 15
New
Sep 22
First Quarter
Sep 29
Full

Hourly Weather History & Observations

Time (CDT) Temp. Heat Index Dew Point Humidity Pressure Visibility Wind Dir Wind Speed Gust Speed Precip Events Conditions
12:12 AM 69.8 °F - 66.2 °F 88% 29.87 in 10.0 mi Calm Calm - N/A   Clear
12:32 AM 69.8 °F - 66.2 °F 88% 29.87 in 10.0 mi South 3.5 mph - N/A   Clear
12:52 AM 69.8 °F - 64.4 °F 83% 29.87 in 10.0 mi South 3.5 mph - N/A   Clear
1:12 AM 69.8 °F - 64.4 °F 83% 29.87 in 10.0 mi South 3.5 mph - N/A   Clear
1:32 AM 69.8 °F - 64.4 °F 83% 29.88 in 10.0 mi Calm Calm - N/A   Mostly Cloudy
1:52 AM 69.8 °F - 66.2 °F 88% 29.88 in 10.0 mi Calm Calm - N/A   Mostly Cloudy
2:12 AM 69.8 °F - 66.2 °F 88% 29.88 in 10.0 mi Calm Calm - N/A   Scattered Clouds
2:32 AM 69.8 °F - 66.2 °F 88% 29.88 in 10.0 mi Calm Calm - N/A   Scattered Clouds
2:52 AM 69.8 °F - 64.4 °F 83% 29.88 in 10.0 mi Calm Calm - N/A   Scattered Clouds
3:12 AM 68.0 °F - 64.4 °F 88% 29.88 in 10.0 mi Calm Calm - N/A   Scattered Clouds
3:32 AM 68.0 °F - 64.4 °F 88% 29.89 in 7.0 mi Calm Calm - N/A   Scattered Clouds
3:52 AM 71.6 °F - 66.2 °F 83% 29.88 in 10.0 mi Calm Calm - N/A   Clear
4:12 AM 71.6 °F - 66.2 °F 83% 29.88 in 10.0 mi Calm Calm - N/A   Clear
4:32 AM 71.6 °F - 66.2 °F 83% 29.88 in 10.0 mi SSW 4.6 mph - N/A   Clear
4:52 AM 71.6 °F - 66.2 °F 83% 29.88 in 10.0 mi Calm Calm - N/A   Scattered Clouds
5:12 AM 71.6 °F - 66.2 °F 83% 29.88 in 10.0 mi Calm Calm - N/A   Mostly Cloudy
5:32 AM 71.6 °F - 66.2 °F 83% 29.88 in 10.0 mi SSE 4.6 mph - N/A   Mostly Cloudy
5:52 AM 69.8 °F - 66.2 °F 88% 29.88 in 10.0 mi Calm Calm - 0.01 in Rain Light Rain
6:12 AM 69.8 °F - 66.2 °F 88% 29.89 in 10.0 mi South 3.5 mph - 0.01 in Rain , Thunderstorm Light Thunderstorms and Rain
6:32 AM 69.8 °F - 66.2 °F 88% 29.89 in 10.0 mi Calm Calm - 0.01 in Rain , Thunderstorm Light Thunderstorms and Rain
6:52 AM 68.0 °F - 66.2 °F 94% 29.90 in 10.0 mi Calm Calm - 0.01 in   Scattered Clouds
7:11 AM 66.2 °F - 66.2 °F 100% 29.91 in 7.0 mi Calm Calm - N/A Thunderstorm Thunderstorm
7:32 AM 66.2 °F - 66.2 °F 100% 29.90 in 5.0 mi Calm Calm - N/A Thunderstorm Scattered Clouds
7:52 AM 68.0 °F - 66.2 °F 94% 29.91 in 7.0 mi Calm Calm - N/A   Clear
8:11 AM 69.8 °F - 66.2 °F 88% 29.91 in 10.0 mi Calm Calm - N/A   Clear
8:32 AM 71.6 °F - 68.0 °F 88% 29.91 in 10.0 mi West 3.5 mph - N/A   Scattered Clouds
8:52 AM 73.4 °F - 68.0 °F 83% 29.91 in 10.0 mi West 3.5 mph - N/A   Clear
9:11 AM 73.4 °F - 68.0 °F 83% 29.91 in 10.0 mi West 3.5 mph - N/A   Clear
9:32 AM 75.2 °F - 68.0 °F 78% 29.91 in 10.0 mi WNW 4.6 mph - N/A   Clear
9:52 AM 75.2 °F - 68.0 °F 78% 29.91 in 10.0 mi NW 4.6 mph - N/A   Clear
10:11 AM 75.2 °F - 66.2 °F 73% 29.91 in 10.0 mi Calm Calm - N/A   Clear
10:32 AM 78.8 °F - 68.0 °F 69% 29.92 in 10.0 mi Calm Calm - N/A   Clear
10:52 AM 78.8 °F - 68.0 °F 69% 29.92 in 10.0 mi Calm Calm - N/A   Clear
11:11 AM 80.6 °F 83.2 °F 68.0 °F 65% 29.91 in 10.0 mi Calm Calm - N/A   Clear
11:32 AM 80.6 °F 83.2 °F 68.0 °F 65% 29.91 in 10.0 mi Calm Calm - N/A   Clear
11:52 AM 80.6 °F 82.7 °F 66.2 °F 61% 29.91 in 10.0 mi ENE 3.5 mph - N/A   Clear
12:12 PM 82.4 °F 85.4 °F 68.0 °F 62% 29.91 in 10.0 mi Calm Calm - N/A   Clear
12:32 PM 82.4 °F 84.6 °F 66.2 °F 58% 29.91 in 10.0 mi Calm Calm - N/A   Clear
12:52 PM 82.4 °F 84.6 °F 66.2 °F 58% 29.90 in 10.0 mi North 3.5 mph - N/A   Clear
1:12 PM 82.4 °F 84.6 °F 66.2 °F 58% 29.90 in 10.0 mi NNW 4.6 mph - N/A   Clear
1:32 PM 82.4 °F 83.9 °F 64.4 °F 54% 29.90 in 10.0 mi Calm Calm - N/A   Clear
1:52 PM 82.4 °F 83.9 °F 64.4 °F 54% 29.90 in 7.0 mi Calm Calm - N/A   Clear
2:12 PM 82.4 °F 83.9 °F 64.4 °F 54% 29.90 in 10.0 mi Calm Calm - N/A   Clear
2:32 PM 82.4 °F 85.4 °F 68.0 °F 62% 29.89 in 10.0 mi SE 3.5 mph - N/A   Clear
2:51 PM 82.4 °F 86.3 °F 69.8 °F 66% 29.89 in 10.0 mi SSW 3.5 mph - N/A   Clear
3:12 PM 82.4 °F 85.4 °F 68.0 °F 62% 29.89 in 10.0 mi SSE 3.5 mph - N/A   Clear
3:32 PM 82.4 °F 86.3 °F 69.8 °F 66% 29.89 in 10.0 mi South 3.5 mph - N/A   Clear
3:51 PM 82.4 °F 85.4 °F 68.0 °F 62% 29.89 in 7.0 mi Calm Calm - N/A   Clear
4:12 PM 82.4 °F 85.4 °F 68.0 °F 62% 29.88 in 10.0 mi South 3.5 mph - N/A   Clear
4:32 PM 82.4 °F 85.4 °F 68.0 °F 62% 29.88 in 10.0 mi SSE 3.5 mph - N/A   Clear
4:51 PM 82.4 °F 85.4 °F 68.0 °F 62% 29.87 in 10.0 mi Calm Calm - N/A   Clear
5:12 PM 82.4 °F 84.6 °F 66.2 °F 58% 29.87 in 10.0 mi Calm Calm - N/A   Clear
5:32 PM 82.4 °F 84.6 °F 66.2 °F 58% 29.87 in 10.0 mi Calm Calm - N/A   Clear
5:51 PM 82.4 °F 84.6 °F 66.2 °F 58% 29.87 in 10.0 mi Calm Calm - N/A   Clear
6:12 PM 82.4 °F 84.6 °F 66.2 °F 58% 29.86 in 10.0 mi Calm Calm - N/A   Clear
6:31 PM 82.4 °F 86.3 °F 69.8 °F 66% 29.86 in 7.0 mi Calm Calm - N/A   Clear
6:52 PM 78.8 °F - 69.8 °F 74% 29.86 in 10.0 mi SSE 3.5 mph - N/A   Clear
7:12 PM 75.2 °F - 68.0 °F 78% 29.86 in 10.0 mi Calm Calm - N/A   Clear
7:31 PM 75.2 °F - 68.0 °F 78% 29.87 in 10.0 mi South 3.5 mph - N/A   Clear
7:52 PM 73.4 °F - 68.0 °F 83% 29.87 in 10.0 mi Calm Calm - N/A   Clear
8:12 PM 69.8 °F - 66.2 °F 88% 29.88 in 7.0 mi Calm Calm - N/A   Clear
8:31 PM 69.8 °F - 66.2 °F 88% 29.88 in 7.0 mi Calm Calm - N/A   Clear
8:52 PM 66.2 °F - 64.4 °F 94% 29.89 in 7.0 mi Calm Calm - N/A   Clear
9:12 PM 66.2 °F - 64.4 °F 94% 29.89 in 7.0 mi Calm Calm - N/A   Clear
9:31 PM 64.4 °F - 64.4 °F 100% 29.89 in 7.0 mi Calm Calm - N/A   Clear
9:52 PM 66.2 °F - 66.2 °F 100% 29.89 in 10.0 mi Calm Calm - N/A   Clear
10:12 PM 64.4 °F - 62.6 °F 94% 29.89 in 5.0 mi Calm Calm - N/A   Clear
10:32 PM 64.4 °F - 64.4 °F 100% 29.89 in 7.0 mi SW 3.5 mph - N/A   Clear
10:52 PM 64.4 °F - 64.4 °F 100% 29.89 in 7.0 mi Calm Calm - N/A   Clear
11:12 PM 62.6 °F - 62.6 °F 100% 29.89 in 5.0 mi Calm Calm - N/A   Clear
11:32 PM 64.4 °F - 62.6 °F 94% 29.89 in 7.0 mi SW 3.5 mph - N/A   Clear
11:52 PM 64.4 °F - 64.4 °F 100% 29.89 in 10.0 mi SW 3.5 mph - N/A   Clear